Simultaneous Nadir Overpasses (SNOs) Predictions

Prediction of SNOs between GOES-17 and NOAA-19 Satellite Orbit:

Table of predicted SNOs for the next 14.0 days since TLE Epoch: 5/8/2020
Index Date Time (GOES-17) GOES-17 Lat,Lon NOAA-19 Lat,Lon Distance(km) Time Diff (sec)
1 05/09/2020 03:14:06 -0.03,-137.19 -0.90,-140.99 434.41 80
2 05/10/2020 03:02:25 -0.02,-137.18 -0.26,-138.14 109.32 80
3 05/11/2020 02:48:06 -0.02,-137.18 0.45,-135.30 215.71 80
4 05/13/2020 15:11:42 0.01,-137.18 0.74,-140.24 349.34 80
5 05/14/2020 15:00:01 0.01,-137.18 0.08,-137.39 24.48 80
6 05/15/2020 14:45:41 0.01,-137.17 -0.60,-134.54 300.44 80
7 05/18/2020 03:06:48 -0.01,-137.13 -0.56,-139.53 273.57 80
8 05/19/2020 02:57:47 -0.01,-137.12 0.09,-136.67 50.85 80
9 05/20/2020 02:46:07 -0.01,-137.11 0.75,-133.82 375.11 80
10 05/22/2020 15:04:21 0.00,-137.09 0.42,-138.76 191.33 80




NCC Satellite Simultaneous Nadir Overpasses (SNOs) Prediction Service
